Location: Delmar
(42.6220°N, 73.8326°W)
Time: 05:41:59
(UTC+00:00)

Meteor 2-15 - Pass Details

Date: 29 October 2020
Orbit: 935 x 956 km, 82.5° (Epoch: 29 November)

Event Time Altitude Azimuth Distance (km) Brightness Sun altitude
Rises 22:55:48 0° 176° (S) 3,619 7.5 -12.4°
Reaches altitude 10° 22:58:18 10° 173° (S) 2,677 6.8 -12.8°
Maximum altitude 23:04:20 63° 94° (E) 1,062 4.4 -13.9°
Drops below altitude 10° 23:10:23 10° 15° (NNE) 2,685 6.6 -15.0°
Sets 23:12:54 0° 12° (NNE) 3,632 7.3 -15.5°
